Home   Weather   Dover   Past weeks
Flag for United Kingdom

Past Weather in Dover, England, United Kingdom — Yesterday and Last 2 Weeks

Now
33 °F

Chilly.


Feels Like: 23 °F
Forecast: 39 / 36 °F
Wind: 14 mph from Northwest

Location: Langdon Bay

Current Time: Jan 24, 2019 at 2:23:53 am

Latest Report: Jan 24, 2019 at 1:00 am


Visibility: N/A

Pressure: 29.80 "Hg

Humidity: 97%

Dew Point: 32 °F

Location of DoverLocation

Past Weather in Dover — Graph

°F

Dover Temperature Yesterday

Maximum temperature yesterday: 35 °F (at 3:00 pm)
Minimum temperature yesterday: 32 °F (at 10:00 pm)
Average temperature yesterday: 33 °F

High & Low Weather Summary for the Past Weeks

 TemperatureHumidityPressure
High52 °F (Jan 13, 2:00 pm)100% (Jan 11, 10:00 am)30.42 "Hg (Jan 11, 10:00 am)
Low29 °F (Jan 20, 11:00 pm)62% (Jan 17, 2:00 pm)29.35 "Hg (Jan 23, 1:00 am)
Average40 °F86%30.01 "Hg
* Reported Jan 9 1:00 am — Jan 24 1:00 am, Dover. Weather by CustomWeather, © 2019

Note: Actual official high and low records may vary slightly from our data, if they occured in-between our weather recording intervals... More about our weather records

Advertising

Dover Weather History for the Previous 24 Hours

Scroll right to see more
 ConditionsComfort  
Time TempWeatherWind HumidityBarometerVisibility
1:00 am
Thu, Jan 24
33 °FChilly.14 mph97%29.80 "HgN/A
11:00 pm
Wed, Jan 23
32 °FChilly.14 mph97%29.77 "HgN/A
10:00 pm32 °FChilly.16 mph98%29.75 "HgN/A
8:00 pm32 °FChilly.18 mph98%29.72 "HgN/A
7:00 pm33 °FChilly.18 mph97%29.70 "HgN/A
6:00 pm33 °FChilly.20 mph96%29.68 "HgN/A
5:00 pm33 °FChilly.22 mph97%29.65 "HgN/A
4:00 pm35 °FChilly.18 mph94%29.62 "HgN/A
3:00 pm35 °FChilly.15 mph97%29.60 "HgN/A
2:00 pm34 °FChilly.17 mph97%29.58 "HgN/A
1:00 pm34 °FChilly.17 mph99%29.57 "HgN/A
12:00 pm34 °FChilly.17 mph99%29.55 "HgN/A
11:00 am33 °FChilly.21 mph100%29.53 "HgN/A
10:00 am32 °FChilly.18 mph100%29.50 "HgN/A
9:00 am32 °FChilly.18 mph100%29.47 "HgN/A
8:00 am32 °FChilly.21 mph100%29.44 "HgN/A
7:00 am32 °FChilly.21 mph100%29.41 "HgN/A
6:00 am32 °FChilly.24 mph99%29.38 "HgN/A
5:00 am32 °FChilly.20 mph99%29.38 "HgN/A
4:00 am32 °FChilly.14 mph99%29.38 "HgN/A
3:00 am32 °FChilly.15 mph99%29.38 "HgN/A
2:00 am32 °FChilly.13 mph98%29.38 "HgN/A
Weather by CustomWeather, © 2019

See weather overview